TA2EE-10 Weather Reports


Display with metric or nautical units.
time (UTC)temp
F
wind
direction
speed
MPH
gust
MPH
rain 1hr
in
rain 24hr
in
rain mn
in
humidity
%
barometer
mb
20260506224746 76 0 0.0 0.0 0.00 0.00 0.00 30 916.0
20260506221224 75 0 0.0 0.0 0.00 0.00 0.00 31 916.0
20260506213701 76 0 0.0 0.0 0.00 0.00 0.00 31 916.0
20260506210140 77 0 0.0 0.0 0.00 0.00 0.00 32 916.0
20260506202617 78 0 0.0 0.0 0.00 0.00 0.00 34 916.0
20260506195055 78 0 0.0 0.0 0.00 0.00 0.00 32 916.0
20260506191533 78 0 0.0 0.0 0.00 0.00 0.00 28 916.0
20260506184011 78 0 0.0 0.0 0.00 0.00 0.00 29 916.0
20260506180449 79 0 0.0 0.0 0.00 0.00 0.00 29 915.0
20260506180342 79 0 0.0 0.0 0.00 0.00 0.00 28 915.0
20260506172819 80 0 0.0 0.0 0.00 0.00 0.00 27 915.0
20260506165257 81 0 0.0 0.0 0.00 0.00 0.00 26 915.0
20260506161736 79 0 0.0 0.0 0.00 0.00 0.00 26 915.0
20260506154213 78 0 0.0 0.0 0.00 0.00 0.00 26 914.0
20260506150652 80 0 0.0 0.0 0.00 0.00 0.00 26 914.0
20260506143129 81 0 0.0 0.0 0.00 0.00 0.00 26 914.0
20260506135607 79 0 0.0 0.0 0.00 0.00 0.00 27 914.0
20260506132045 80 0 0.0 0.0 0.00 0.00 0.00 28 914.0
20260506124523 82 0 0.0 0.0 0.00 0.00 0.00 25 915.0
20260506121001 80 0 0.0 0.0 0.00 0.00 0.00 27 915.0
20260506113439 78 0 0.0 0.0 0.00 0.00 0.00 28 915.0
20260506105917 78 0 0.0 0.0 0.00 0.00 0.00 28 915.0
20260506102355 82 0 0.0 0.0 0.00 0.00 0.00 26 915.0
20260506094833 83 0 0.0 0.0 0.00 0.00 0.00 25 915.0
20260506091310 79 0 0.0 0.0 0.00 0.00 0.00 28 915.0
20260506083748 81 0 0.0 0.0 0.00 0.00 0.00 26 915.0
20260506080226 81 0 0.0 0.0 0.00 0.00 0.00 27 915.0
20260506072703 81 0 0.0 0.0 0.00 0.00 0.00 27 915.0
20260506061620 72 0 0.0 0.0 0.00 0.00 0.00 35 915.0
20260506050305 60 0 0.0 0.0 0.00 0.00 0.00 48 915.0
20260506042743 60 0 0.0 0.0 0.00 0.00 0.00 47 914.0
20260506035220 61 0 0.0 0.0 0.00 0.00 0.00 47 914.0
20260506031658 61 0 0.0 0.0 0.00 0.00 0.00 48 914.0
20260506024136 61 0 0.0 0.0 0.00 0.00 0.00 48 913.0
20260506020614 61 0 0.0 0.0 0.00 0.00 0.00 49 913.0
20260506013052 61 0 0.0 0.0 0.00 0.00 0.00 49 913.0
20260506005530 61 0 0.0 0.0 0.00 0.00 0.00 48 913.0
20260506002008 62 0 0.0 0.0 0.00 0.00 0.00 48 913.0
20260505234445 62 0 0.0 0.0 0.00 0.00 0.00 47 913.0